English version
lugares datos climáticos artículos

datos de Mairena del Aljarafe, Sevilla, España
Año Mes Dia Mostrar

  Fecha       hora        Temp.ext.    Hum.ext.  Dir.Viento   Vel.Viento  Presion al NM   T.int. Prec.hoy 

   01-12-2022    19:00      13.6º(-1.5)     79%         -         0.0 km/h    1011.5 hpa     22.0º    1.0 mm
   01-12-2022    18:55      13.7º(-1.4)     78%         -         0.0 km/h    1011.5 hpa     22.0º    1.0 mm
   01-12-2022    18:50      13.8º(-1.4)     78%         -         0.0 km/h    1011.5 hpa     22.0º    1.0 mm
   01-12-2022    18:45      14.0º(-1.2)     78%         -         0.0 km/h    1011.5 hpa     22.0º    1.0 mm
   01-12-2022    18:40      14.1º(-1.1)     77%         -         0.0 km/h    1011.5 hpa     22.0º    1.0 mm
   01-12-2022    18:35      14.2º(-1.1)     77%         -         0.0 km/h    1011.5 hpa     22.0º    1.0 mm
   01-12-2022    18:30      14.3º(-1.0)     76%         -         0.0 km/h    1011.5 hpa     22.0º    1.0 mm
   01-12-2022    18:25      14.4º(-1.0)     76%         -         0.0 km/h    1011.5 hpa     22.0º    1.0 mm
   01-12-2022    18:20      14.5º(-0.9)     76%         -         0.0 km/h    1011.5 hpa     22.0º    1.0 mm
   01-12-2022    18:15      14.6º(-1.0)     75%         -         0.0 km/h    1011.5 hpa     21.9º    1.0 mm
   01-12-2022    18:10      14.7º(-1.0)     75%         -         0.0 km/h    1011.5 hpa     21.9º    1.0 mm
   01-12-2022    18:05      14.7º(-1.2)     74%         -         0.0 km/h    1011.4 hpa     21.9º    1.0 mm
   01-12-2022    18:00      14.8º(-1.2)     74%         -         0.0 km/h    1011.4 hpa     21.9º    1.0 mm
   01-12-2022    17:55      14.9º(-1.1)     73%         -         0.0 km/h    1011.5 hpa     22.0º    1.0 mm
   01-12-2022    17:50      15.0º(-1.1)     73%         -         0.0 km/h    1011.5 hpa     22.0º    1.0 mm
   01-12-2022    17:45      15.0º(-1.2)     73%         -         0.0 km/h    1011.4 hpa     22.0º    1.0 mm
   01-12-2022    17:40      15.0º(-1.3)     72%         -         0.0 km/h    1011.4 hpa     22.0º    1.0 mm
   01-12-2022    17:35      15.1º(-1.3)     71%         -         0.0 km/h    1011.3 hpa     22.0º    1.0 mm
   01-12-2022    17:30      15.1º(-1.3)     71%         -         0.0 km/h    1011.4 hpa     22.0º    1.0 mm
   01-12-2022    17:25      15.1º(-1.4)     71%         -         0.0 km/h    1011.4 hpa     22.0º    1.0 mm
   01-12-2022    17:20      15.1º(-1.5)     71%         -         0.0 km/h    1011.4 hpa     22.0º    1.0 mm
   01-12-2022    17:15      15.1º(-1.6)     71%         -         0.0 km/h    1011.3 hpa     22.0º    1.0 mm
   01-12-2022    17:10      15.1º(-1.7)     71%         -         0.0 km/h    1011.4 hpa     22.0º    1.0 mm
   01-12-2022    17:05      15.1º(-1.9)     71%         -         0.0 km/h    1011.4 hpa     22.0º    1.0 mm
   01-12-2022    17:00      15.1º(-2.1)     71%         -         0.0 km/h    1011.5 hpa     22.0º    1.0 mm
   01-12-2022    16:55      15.1º(-2.2)     72%         -         0.0 km/h    1011.5 hpa     22.0º    1.0 mm
   01-12-2022    16:50      15.1º(-2.2)     71%         -         0.0 km/h    1011.5 hpa     22.0º    1.0 mm
   01-12-2022    16:45      15.2º(-2.2)     72%         -         0.0 km/h    1011.6 hpa     22.0º    1.0 mm
   01-12-2022    16:40      15.3º(-2.2)     72%         -         0.0 km/h    1011.6 hpa     22.0º    1.0 mm
   01-12-2022    16:35      15.3º(-2.4)     72%         -         0.0 km/h    1011.5 hpa     22.0º    1.0 mm
   01-12-2022    16:30      15.2º(-2.7)     72%         -         0.0 km/h    1011.6 hpa     22.0º    1.0 mm
   01-12-2022    16:25      15.1º(-3.0)     70%         -         0.0 km/h    1011.5 hpa     22.0º    1.0 mm
   01-12-2022    16:20      15.1º(-2.9)     68%         -         0.0 km/h    1011.5 hpa     21.9º    1.0 mm
   01-12-2022    16:15      15.0º(-2.9)     69%      000 (N)      1.6 km/h    1011.5 hpa     21.9º    1.0 mm
   01-12-2022    16:10      15.1º(-2.8)     68%      000 (N)      1.6 km/h    1011.6 hpa     21.8º    1.0 mm
   01-12-2022    16:05      15.1º(-2.8)     68%      000 (N)      1.6 km/h    1011.5 hpa     21.8º    1.0 mm
   01-12-2022    16:00      15.1º(-2.9)     67%      000 (N)      1.6 km/h    1011.6 hpa     21.7º    1.0 mm
   01-12-2022    15:55      15.1º(-2.9)     67%      022 (N)      1.6 km/h    1011.6 hpa     21.6º    1.0 mm
   01-12-2022    15:50      15.2º(-2.8)     67%      022 (N)      1.6 km/h    1011.6 hpa     21.6º    1.0 mm
   01-12-2022    15:45      15.1º(-2.7)     68%         -         0.0 km/h    1011.6 hpa     21.6º    1.0 mm
   01-12-2022    15:40      15.1º(-2.4)     68%         -         0.0 km/h    1011.5 hpa     21.5º    1.0 mm
   01-12-2022    15:35      15.0º(-2.5)     69%         -         0.0 km/h    1011.5 hpa     21.5º    1.0 mm
   01-12-2022    15:30      14.9º(-2.9)     68%      045(NE)      1.6 km/h    1011.5 hpa     21.5º    1.0 mm
   01-12-2022    15:25      14.9º(-3.0)     67%      045(NE)      1.6 km/h    1011.4 hpa     21.5º    1.0 mm
   01-12-2022    15:20      14.9º(-2.9)     68%         -         0.0 km/h    1011.5 hpa     21.4º    1.0 mm
   01-12-2022    15:15      14.9º(-2.7)     68%      045(NE)      1.6 km/h    1011.5 hpa     21.4º    1.0 mm
   01-12-2022    15:10      14.9º(-2.4)     69%      022 (N)      1.6 km/h    1011.6 hpa     21.4º    1.0 mm
   01-12-2022    15:05      14.8º(-2.3)     69%         -         0.0 km/h    1011.6 hpa     21.3º    1.0 mm
   01-12-2022    15:00      14.8º(-2.1)     69%      045(NE)      1.6 km/h    1011.5 hpa     21.3º    1.0 mm
   01-12-2022    14:55      14.7º(-2.0)     71%         -         0.0 km/h    1011.5 hpa     21.3º    1.0 mm
   01-12-2022    14:50      14.6º(-2.1)     71%         -         0.0 km/h    1011.6 hpa     21.2º    1.0 mm
   01-12-2022    14:45      14.5º(-2.1)     71%         -         0.0 km/h    1011.6 hpa     21.2º    1.0 mm
   01-12-2022    14:40      14.4º(-2.1)     72%         -         0.0 km/h    1011.6 hpa     21.2º    1.0 mm
   01-12-2022    14:35      14.4º(-2.0)     72%      000 (N)      1.6 km/h    1011.7 hpa     21.2º    1.0 mm
   01-12-2022    14:30      14.3º(-2.0)     73%      022 (N)      1.6 km/h    1011.7 hpa     21.1º    1.0 mm
   01-12-2022    14:25      14.3º(-1.9)     73%      022 (N)      1.6 km/h    1011.6 hpa     21.1º    1.0 mm
   01-12-2022    14:20      14.2º(-2.0)     73%         -         0.0 km/h    1011.9 hpa     21.1º    1.0 mm
   01-12-2022    14:15      14.1º(-2.0)     73%         -         0.0 km/h    1011.9 hpa     21.1º    1.0 mm
   01-12-2022    14:10      14.1º(-2.0)     73%         -         0.0 km/h    1011.9 hpa     21.1º    1.0 mm
   01-12-2022    14:05      13.9º(-1.8)     74%         -         0.0 km/h    1011.9 hpa     21.1º    1.0 mm
   01-12-2022    14:00      13.7º(-1.7)     73%      090 (E)      1.6 km/h    1011.9 hpa     21.1º    1.0 mm
   01-12-2022    13:55      13.6º(-1.5)     74%      090 (E)      1.6 km/h    1011.9 hpa     21.1º    1.0 mm
   01-12-2022    13:50      13.5º(-1.3)     75%         -         0.0 km/h    1012.0 hpa     21.1º    1.0 mm
   01-12-2022    13:45      13.4º(-1.2)     75%         -         0.0 km/h    1012.0 hpa     21.1º    1.0 mm
   01-12-2022    13:40      13.3º(-0.9)     76%         -         0.0 km/h    1012.1 hpa     21.1º    1.0 mm
   01-12-2022    13:35      13.2º(-0.7)     77%         -         0.0 km/h    1012.0 hpa     21.1º    1.0 mm
   01-12-2022    13:30      13.1º(-0.8)     77%         -         0.0 km/h    1012.1 hpa     21.1º    1.0 mm
   01-12-2022    13:25      12.9º(-0.9)     77%         -         0.0 km/h    1012.1 hpa     21.1º    1.0 mm
   01-12-2022    13:20      12.9º(-1.1)     77%         -         0.0 km/h    1012.1 hpa     21.1º    1.0 mm
   01-12-2022    13:15      12.8º(-1.2)     78%      112 (E)      1.6 km/h    1012.2 hpa     21.1º    1.0 mm
   01-12-2022    13:10      12.9º(-1.1)     78%      090 (E)      1.6 km/h    1012.2 hpa     21.1º    1.0 mm
   01-12-2022    13:05      12.9º(-0.9)     79%         -         0.0 km/h    1012.3 hpa     21.1º    1.0 mm
   01-12-2022    13:00      12.8º(-0.6)     79%         -         0.0 km/h    1012.4 hpa     20.9º    1.0 mm
   01-12-2022    12:55      12.7º(-0.7)     78%         -         0.0 km/h    1012.3 hpa     20.9º    1.0 mm
   01-12-2022    12:50      12.7º(-0.7)     78%      090 (E)      3.2 km/h    1012.4 hpa     20.9º    1.0 mm
   01-12-2022    12:45      12.7º(-0.7)     78%      090 (E)      1.6 km/h    1012.5 hpa     20.9º    1.0 mm
   01-12-2022    12:40      12.7º(-0.6)     78%      090 (E)      3.2 km/h    1012.6 hpa     21.1º    1.0 mm
   01-12-2022    12:35      12.7º(-0.5)     78%         -         0.0 km/h    1012.7 hpa     21.1º    1.0 mm
   01-12-2022    12:30      12.7º(-0.2)     78%      090 (E)      1.6 km/h    1012.8 hpa     21.1º    1.0 mm
   01-12-2022    12:25      12.7º(-0.1)     78%      090 (E)      3.2 km/h    1012.9 hpa     21.1º    1.0 mm
   01-12-2022    12:20      12.7º(+0.1)     79%      090 (E)      1.6 km/h    1013.0 hpa     21.1º    1.0 mm
   01-12-2022    12:15      12.6º(+0.2)     78%      067(NE)      3.2 km/h    1013.1 hpa     21.1º    1.0 mm
   01-12-2022    12:10      12.4º(+0.2)     79%      067(NE)      3.2 km/h    1013.1 hpa     21.1º    1.0 mm
   01-12-2022    12:05      12.3º(+0.4)     79%      022 (N)      1.6 km/h    1013.2 hpa     21.1º    1.0 mm
   01-12-2022    12:00      12.3º(+0.6)     80%      022 (N)      1.6 km/h    1013.3 hpa     21.1º    1.0 mm
   01-12-2022    11:55      12.1º(+0.6)     81%         -         0.0 km/h    1013.3 hpa     21.1º    1.0 mm
   01-12-2022    11:50      11.9º(+0.6)     81%         -         0.0 km/h    1013.4 hpa     21.1º    1.0 mm
   01-12-2022    11:45      11.9º(+0.7)     82%         -         0.0 km/h    1013.5 hpa     21.1º    1.0 mm
   01-12-2022    11:40      11.8º(+0.7)     82%         -         0.0 km/h    1013.5 hpa     20.9º    1.0 mm
   01-12-2022    11:35      11.7º(+0.8)     82%      045(NE)      1.6 km/h    1013.6 hpa     20.9º    1.0 mm
   01-12-2022    11:30      11.7º(+0.9)     83%         -         0.0 km/h    1013.6 hpa     20.9º    1.0 mm
   01-12-2022    11:25      11.7º(+1.0)     83%      000 (N)      1.6 km/h    1013.6 hpa     20.9º    1.0 mm
   01-12-2022    11:20      11.6º(+0.8)     83%      000 (N)      1.6 km/h    1013.5 hpa     20.9º    1.0 mm
   01-12-2022    11:15      11.6º(+0.8)     83%         -         0.0 km/h    1013.7 hpa     21.1º    1.0 mm
   01-12-2022    11:10      11.6º(+0.9)     83%         -         0.0 km/h    1013.7 hpa     21.1º    1.0 mm
   01-12-2022    11:05      11.6º(+1.0)     83%      022 (N)      1.6 km/h    1013.6 hpa     21.1º    1.0 mm
   01-12-2022    11:00      11.6º(+1.1)     82%      000 (N)      1.6 km/h    1013.5 hpa     21.1º    1.0 mm
   01-12-2022    10:55      11.7º(+1.3)     82%      022 (N)      1.6 km/h    1013.5 hpa     21.1º    1.0 mm
   01-12-2022    10:50      11.8º(+1.4)     82%      022 (N)      1.6 km/h    1013.5 hpa     21.1º    1.0 mm
   01-12-2022    10:45      11.8º(+1.6)     82%      045(NE)      1.6 km/h    1013.4 hpa     21.1º    1.0 mm
   01-12-2022    10:40      11.8º(+1.6)     82%      045(NE)      1.6 km/h    1013.4 hpa     21.1º    1.0 mm
   01-12-2022    10:35      11.8º(+1.6)     82%         -         0.0 km/h    1013.4 hpa     21.1º    1.0 mm
   01-12-2022    10:30      11.8º(+1.8)     82%         -         0.0 km/h    1013.3 hpa     21.1º    1.0 mm
   01-12-2022    10:25      11.7º(+1.9)     81%         -         0.0 km/h    1013.3 hpa     21.1º    1.0 mm
   01-12-2022    10:20      11.7º(+1.9)     81%         -         0.0 km/h    1013.3 hpa     21.2º    1.0 mm
   01-12-2022    10:15      11.6º(+1.9)     81%         -         0.0 km/h    1013.2 hpa     21.2º    1.0 mm
   01-12-2022    10:10      11.6º(+2.0)     81%         -         0.0 km/h    1013.2 hpa     21.2º    1.0 mm
   01-12-2022    10:05      11.5º(+2.1)     81%         -         0.0 km/h    1013.2 hpa     21.2º    1.0 mm
   01-12-2022    10:00      11.4º(+2.1)     80%         -         0.0 km/h    1013.1 hpa     21.2º    1.0 mm
   01-12-2022    09:55      11.4º(+2.2)     80%      067(NE)      1.6 km/h    1013.0 hpa     21.2º    1.0 mm
   01-12-2022    09:50      11.3º(+2.3)     80%      090 (E)      3.2 km/h    1012.9 hpa     21.3º    1.0 mm
   01-12-2022    09:45      11.3º(+2.5)     80%      090 (E)      3.2 km/h    1012.9 hpa     21.3º    1.0 mm
   01-12-2022    09:40      11.3º(+2.8)     81%      090 (E)      4.8 km/h    1013.0 hpa     21.4º    1.0 mm
   01-12-2022    09:35      11.2º(+2.9)     81%      090 (E)      3.2 km/h    1012.9 hpa     21.4º    1.0 mm
   01-12-2022    09:30      11.1º(+2.9)     83%      090 (E)      4.8 km/h    1012.9 hpa     21.5º    1.0 mm
   01-12-2022    09:25        - º(----)      -%         -          -  km/h    1012.8 hpa     21.5º    1.0 mm
   01-12-2022    09:20        - º(----)      -%         -          -  km/h    1012.9 hpa     21.6º    1.0 mm
   01-12-2022    09:15        - º(----)      -%         -          -  km/h    1012.8 hpa     21.8º    1.0 mm
   01-12-2022    09:10        - º(----)      -%         -          -  km/h    1012.8 hpa     21.6º    1.0 mm
   01-12-2022    09:05        - º(----)      -%         -          -  km/h    1012.7 hpa     21.7º    1.0 mm
   01-12-2022    09:00        - º(----)      -%         -          -  km/h    1012.8 hpa     21.7º    1.0 mm
   01-12-2022    08:55        - º(----)      -%         -          -  km/h    1012.7 hpa     21.7º    1.0 mm
   01-12-2022    08:50        - º(----)      -%         -          -  km/h    1012.7 hpa     21.7º    1.0 mm
   01-12-2022    08:45        - º(----)      -%         -          -  km/h    1012.7 hpa     21.7º    1.0 mm
   01-12-2022    08:40        - º(----)      -%         -          -  km/h    1012.6 hpa     21.8º    1.0 mm
   01-12-2022    08:35        - º(----)      -%         -          -  km/h    1012.6 hpa     21.7º    1.0 mm
   01-12-2022    08:30        - º(----)      -%         -          -  km/h    1012.5 hpa     21.7º    1.0 mm
   01-12-2022    08:25        - º(----)      -%         -          -  km/h    1012.5 hpa     21.8º    1.0 mm
   01-12-2022    08:20        - º(----)      -%         -          -  km/h    1012.6 hpa     21.6º    1.0 mm
   01-12-2022    08:15        - º(----)      -%         -          -  km/h    1012.6 hpa     21.6º    1.0 mm
   01-12-2022    08:10        - º(----)      -%         -          -  km/h    1012.7 hpa     21.7º    1.0 mm
   01-12-2022    08:05        - º(----)      -%         -          -  km/h    1012.6 hpa     21.6º    1.0 mm
   01-12-2022    08:00        - º(----)      -%         -          -  km/h    1012.6 hpa     21.6º    1.0 mm
   01-12-2022    07:55        - º(----)      -%         -          -  km/h    1012.5 hpa     21.6º    1.0 mm
   01-12-2022    07:50        - º(----)      -%         -          -  km/h    1012.5 hpa     21.7º    1.0 mm
   01-12-2022    07:45        - º(----)      -%         -          -  km/h    1012.4 hpa     21.4º    1.0 mm
   01-12-2022    07:40        - º(----)      -%         -          -  km/h    1012.3 hpa     21.4º    1.0 mm
   01-12-2022    07:35        - º(----)      -%         -          -  km/h    1012.4 hpa     21.5º    1.0 mm
   01-12-2022    07:30        - º(----)      -%         -          -  km/h    1012.3 hpa     21.4º    1.0 mm
   01-12-2022    07:25        - º(----)      -%         -          -  km/h    1012.3 hpa     21.3º    1.0 mm
   01-12-2022    07:20        - º(----)      -%         -          -  km/h    1012.2 hpa     21.3º    1.0 mm
   01-12-2022    07:15        - º(----)      -%         -          -  km/h    1012.2 hpa     21.4º    1.0 mm
   01-12-2022    07:10        - º(----)      -%         -          -  km/h    1012.2 hpa     21.2º    1.0 mm
   01-12-2022    07:05        - º(----)      -%         -          -  km/h    1012.1 hpa     21.2º    1.0 mm
   01-12-2022    07:00        - º(----)      -%         -          -  km/h    1012.1 hpa     21.2º    1.0 mm
   01-12-2022    06:55        - º(----)      -%         -          -  km/h    1012.2 hpa     21.1º    1.0 mm
   01-12-2022    06:50        - º(----)      -%         -          -  km/h    1012.2 hpa     21.1º    1.0 mm
   01-12-2022    06:45        - º(----)      -%         -          -  km/h    1012.2 hpa     20.9º    1.0 mm
   01-12-2022    06:40        - º(----)      -%         -          -  km/h    1012.2 hpa     20.9º    1.0 mm
   01-12-2022    06:35        - º(----)      -%         -          -  km/h    1012.2 hpa     20.9º    1.0 mm
   01-12-2022    06:30        - º(----)      -%         -          -  km/h    1012.2 hpa     20.9º    1.0 mm
   01-12-2022    06:25        - º(----)      -%         -          -  km/h    1012.3 hpa     21.2º    1.0 mm
   01-12-2022    06:20        - º(----)      -%         -          -  km/h    1012.3 hpa     20.9º    1.0 mm
   01-12-2022    06:15        - º(----)      -%         -          -  km/h    1012.2 hpa     20.9º    1.0 mm
   01-12-2022    06:10        - º(----)      -%         -          -  km/h    1012.3 hpa     20.9º    1.0 mm
   01-12-2022    06:05        - º(----)      -%         -          -  km/h    1012.4 hpa     20.9º    1.0 mm
   01-12-2022    06:00        - º(----)      -%         -          -  km/h    1012.3 hpa     20.9º    1.0 mm
   01-12-2022    05:55        - º(----)      -%         -          -  km/h    1012.3 hpa     21.1º    1.0 mm
   01-12-2022    05:50        - º(----)      -%         -          -  km/h    1012.4 hpa     21.2º    1.0 mm
   01-12-2022    05:45        - º(----)      -%         -          -  km/h    1012.4 hpa     21.1º    1.0 mm
   01-12-2022    05:40        - º(----)      -%         -          -  km/h    1012.5 hpa     21.1º    1.0 mm
   01-12-2022    05:35        - º(----)      -%         -          -  km/h    1012.5 hpa     21.2º    1.0 mm
   01-12-2022    05:30      10.4º(+1.2)     90%         -          -  km/h    1012.5 hpa     21.2º    1.0 mm
   01-12-2022    05:25      10.4º(+1.2)     90%      045(NE)      1.6 km/h    1012.6 hpa     20.9º    1.0 mm
   01-12-2022    05:20      10.4º(+1.3)     90%      022 (N)      1.6 km/h    1012.8 hpa     20.9º    1.0 mm
   01-12-2022    05:15      10.4º(+1.3)     90%      022 (N)      1.6 km/h    1012.8 hpa     20.9º    1.0 mm
   01-12-2022    05:10      10.4º(+1.3)     90%      045(NE)      1.6 km/h    1012.8 hpa     20.9º    1.0 mm
   01-12-2022    05:05      10.4º(+1.4)     90%      022 (N)      1.6 km/h    1012.7 hpa     20.9º    1.0 mm
   01-12-2022    05:00      10.4º(+1.4)     90%      045(NE)      1.6 km/h    1012.8 hpa     20.9º    1.0 mm
   01-12-2022    04:55      10.4º(+1.3)     90%      045(NE)      1.6 km/h    1012.6 hpa     20.9º    1.0 mm
   01-12-2022    04:50      10.4º(+1.3)     90%      022 (N)      1.6 km/h    1012.6 hpa     20.9º    1.0 mm
   01-12-2022    04:45      10.4º(+1.2)     90%      045(NE)      1.6 km/h    1012.6 hpa     20.9º    1.0 mm
   01-12-2022    04:40      10.4º(+1.1)     90%      022 (N)      1.6 km/h    1012.7 hpa     20.9º    1.0 mm
   01-12-2022    04:35      10.3º(+0.9)     90%      045(NE)      1.6 km/h    1012.7 hpa     20.9º    1.0 mm
   01-12-2022    04:30      10.3º(+0.9)     90%         -         0.0 km/h    1012.8 hpa     20.9º    1.0 mm
   01-12-2022    04:25      10.3º(+0.8)     90%      022 (N)      1.6 km/h    1012.8 hpa     20.9º    1.0 mm
   01-12-2022    04:20      10.4º(+0.9)     90%         -         0.0 km/h    1012.9 hpa     20.9º    1.0 mm
   01-12-2022    04:15      10.3º(+0.7)     90%         -         0.0 km/h    1012.9 hpa     20.9º    1.0 mm
   01-12-2022    04:10      10.3º(+0.7)     90%         -         0.0 km/h    1012.9 hpa     21.1º    1.0 mm
   01-12-2022    04:05      10.3º(+0.6)     90%      000 (N)      1.6 km/h    1013.0 hpa     21.1º    1.0 mm
   01-12-2022    04:00      10.3º(+0.5)     91%      000 (N)      1.6 km/h    1013.1 hpa     21.1º    1.0 mm
   01-12-2022    03:55      10.3º(+0.3)     91%         -         0.0 km/h    1012.9 hpa     21.1º    1.0 mm
   01-12-2022    03:50      10.2º(+0.0)     90%         -         0.0 km/h    1012.9 hpa     21.1º    1.0 mm
   01-12-2022    03:45      10.2º(-0.0)     90%      022 (N)      1.6 km/h    1012.8 hpa     21.1º    1.0 mm
   01-12-2022    03:40      10.3º(-0.0)     90%      000 (N)      1.6 km/h    1012.5 hpa     21.2º    1.0 mm
   01-12-2022    03:35      10.3º(-0.1)     90%      000 (N)      1.6 km/h    1012.5 hpa     21.2º    1.0 mm
   01-12-2022    03:30      10.3º(-0.1)     90%      112 (E)      3.2 km/h    1012.0 hpa     21.2º    1.0 mm
   01-12-2022    03:25      10.3º(-0.2)     90%      112 (E)      8.0 km/h    1011.5 hpa     21.2º    1.0 mm
   01-12-2022    03:20      10.4º(-0.1)     90%      112 (E)      4.8 km/h    1011.8 hpa     21.2º    1.0 mm
   01-12-2022    03:15      10.4º(-0.2)     90%      112 (E)      4.8 km/h    1011.9 hpa     21.2º    1.0 mm
   01-12-2022    03:10      10.5º(-0.1)     90%      112 (E)      4.8 km/h    1012.0 hpa     21.2º    1.0 mm
   01-12-2022    03:05      10.6º(-0.1)     90%      112 (E)      4.8 km/h    1012.1 hpa     21.2º    1.0 mm
   01-12-2022    03:00      10.6º(-0.1)     90%      112 (E)      3.2 km/h    1012.4 hpa     21.3º    1.0 mm
   01-12-2022    02:55      10.6º(-0.1)     90%      090 (E)      3.2 km/h    1012.6 hpa     21.3º    1.0 mm
   01-12-2022    02:50      10.4º(-0.4)     90%      045(NE)      1.6 km/h    1012.8 hpa     21.3º    1.0 mm
   01-12-2022    02:45      10.3º(-0.5)     90%      022 (N)      3.2 km/h    1012.9 hpa     21.3º    1.0 mm
   01-12-2022    02:40      10.3º(-0.5)     90%         -         0.0 km/h    1013.1 hpa     21.4º    1.0 mm
   01-12-2022    02:35      10.3º(-0.6)     90%         -         0.0 km/h    1013.1 hpa     21.4º    1.0 mm
   01-12-2022    02:30      10.3º(-0.6)     90%         -         0.0 km/h    1013.2 hpa     21.4º    1.0 mm
   01-12-2022    02:25      10.3º(-0.7)     90%         -         0.0 km/h    1013.3 hpa     21.4º    1.0 mm
   01-12-2022    02:20      10.3º(-0.8)     90%         -         0.0 km/h    1013.3 hpa     21.5º    1.0 mm
   01-12-2022    02:15      10.3º(-0.9)     90%         -         0.0 km/h    1013.4 hpa     21.5º    1.0 mm
   01-12-2022    02:10      10.3º(-1.0)     90%         -         0.0 km/h    1013.6 hpa     21.5º    1.0 mm
   01-12-2022    02:05      10.3º(-1.0)     90%         -         0.0 km/h    1013.7 hpa     21.6º    1.0 mm
   01-12-2022    02:00      10.3º(-1.2)     90%         -         0.0 km/h    1013.9 hpa     21.6º    1.0 mm
   01-12-2022    01:55      10.3º(-1.3)     89%         -         0.0 km/h    1013.9 hpa     21.6º    1.0 mm
   01-12-2022    01:50      10.3º(-1.4)     89%         -         0.0 km/h    1014.0 hpa     21.7º    1.0 mm
   01-12-2022    01:45      10.4º(-1.4)     90%         -         0.0 km/h    1013.9 hpa     21.7º    1.0 mm
   01-12-2022    01:40      10.3º(-1.6)     89%         -         0.0 km/h    1013.8 hpa     21.8º    1.0 mm
   01-12-2022    01:35      10.3º(-1.6)     89%         -         0.0 km/h    1013.9 hpa     21.8º    1.0 mm
   01-12-2022    01:30      10.3º(-1.7)     89%         -         0.0 km/h    1014.0 hpa     21.9º    1.0 mm
   01-12-2022    01:25      10.4º(-1.5)     89%      000 (N)      1.6 km/h    1014.0 hpa     21.9º    1.0 mm
   01-12-2022    01:20      10.4º(-1.5)     88%      000 (N)      1.6 km/h    1014.0 hpa     21.9º    1.0 mm
   01-12-2022    01:15      10.5º(-1.4)     88%      000 (N)      1.6 km/h    1014.1 hpa     21.9º    1.0 mm
   01-12-2022    01:10      10.6º(-1.3)     88%         -         0.0 km/h    1014.1 hpa     22.0º    0.8 mm
   01-12-2022    01:05      10.7º(-1.2)     88%      000 (N)      1.6 km/h    1014.2 hpa     22.0º    0.8 mm
   01-12-2022    01:00      10.8º(-1.2)     88%      000 (N)      1.6 km/h    1014.2 hpa     22.0º    0.8 mm
   01-12-2022    00:55      10.9º(----)     88%      090 (E)      3.2 km/h    1013.9 hpa     22.1º    0.8 mm
   01-12-2022    00:50      10.9º(----)     87%      067(NE)      3.2 km/h    1013.9 hpa     22.1º    0.8 mm
   01-12-2022    00:45      10.9º(----)     86%         -         0.0 km/h    1014.2 hpa     22.1º    0.8 mm
   01-12-2022    00:40      10.9º(----)     86%         -         0.0 km/h    1014.3 hpa     22.2º    0.8 mm
   01-12-2022    00:35      11.1º(----)     86%         -         0.0 km/h    1014.4 hpa     22.2º    0.8 mm
   01-12-2022    00:30      11.2º(----)     86%         -         0.0 km/h    1014.5 hpa     22.2º    0.5 mm
   01-12-2022    00:25      11.3º(----)     86%         -         0.0 km/h    1014.4 hpa     22.3º    0.3 mm
   01-12-2022    00:20      11.3º(----)     86%         -         0.0 km/h    1014.6 hpa     22.3º    0.3 mm
   01-12-2022    00:15      11.3º(----)     85%         -         0.0 km/h    1014.7 hpa     22.3º    0.3 mm
   01-12-2022    00:10      11.4º(----)     85%         -         0.0 km/h    1014.6 hpa     22.4º    0.3 mm
   01-12-2022    00:05      11.6º(----)     84%         -         0.0 km/h    1014.5 hpa     22.4º    0.0 mm
   01-12-2022    00:00      11.7º(----)     84%         -         0.0 km/h    1014.6 hpa     22.4º    0.0 mm